RYR98XC EGKK-EICK

Flight info

Callsign RYR98XC
Flight time 0h 58m
Altitude 32000
Route IMVUR N63 SAM N19 ADKIK DCT MOPAT DCT ERTER ERTER1G
Aircraft B738/M-SDE2E3FGHIRWXY/LB1

Departure

Time 2026-05-05 11:00
Airport London Gatwick Airport (EGKK)

Arrival

Time 2026-05-05 11:58
Airport Cork International Airport (EICK)
Time Latitude Longitude Altitude Speed Heading
2026-05-05 10:26 51.15766 -0.17940 203 ft 0 kts 32°
2026-05-05 10:47 51.15759 -0.17947 216 ft 2 kts 32°
2026-05-05 10:47 51.15745 -0.17961 216 ft 2 kts 32°
2026-05-05 10:47 51.15731 -0.17976 215 ft 2 kts 28°
2026-05-05 10:47 51.15716 -0.17984 211 ft 2 kts 342°
2026-05-05 10:48 51.15707 -0.17976 216 ft 1 kts 302°
2026-05-05 10:48 51.15706 -0.17973 216 ft 0 kts 301°
2026-05-05 10:50 51.15706 -0.17974 216 ft 1 kts 301°
2026-05-05 10:51 51.15713 -0.17992 210 ft 3 kts 301°
2026-05-05 10:51 51.15723 -0.18015 214 ft 1 kts 310°
2026-05-05 10:51 51.15736 -0.18036 212 ft 4 kts 316°
2026-05-05 10:51 51.15755 -0.18086 206 ft 6 kts 282°
2026-05-05 10:52 51.15733 -0.18153 208 ft 8 kts 220°
2026-05-05 10:52 51.15690 -0.18175 212 ft 6 kts 204°
2026-05-05 10:52 51.15660 -0.18234 206 ft 9 kts 248°
2026-05-05 10:52 51.15628 -0.18332 207 ft 11 kts 214°
2026-05-05 10:53 51.15580 -0.18338 203 ft 7 kts 173°
2026-05-05 10:53 51.15529 -0.18322 203 ft 10 kts 167°
2026-05-05 10:53 51.15424 -0.18283 206 ft 20 kts 168°
2026-05-05 10:53 51.15289 -0.18239 203 ft 21 kts 167°
2026-05-05 10:54 51.15190 -0.18279 212 ft 13 kts 233°
2026-05-05 10:54 51.15166 -0.18411 211 ft 13 kts 256°
2026-05-05 10:54 51.15144 -0.18575 212 ft 17 kts 260°
2026-05-05 10:54 51.15119 -0.18771 203 ft 19 kts 257°
2026-05-05 10:55 51.15090 -0.18986 206 ft 21 kts 259°
2026-05-05 10:55 51.15057 -0.19210 212 ft 21 kts 250°
2026-05-05 10:55 51.14990 -0.19273 207 ft 10 kts 198°
2026-05-05 10:55 51.14946 -0.19333 209 ft 3 kts 254°
2026-05-05 10:56 51.14940 -0.19424 213 ft 14 kts 264°
2026-05-05 10:56 51.14909 -0.19631 209 ft 24 kts 257°
2026-05-05 10:56 51.14870 -0.19924 210 ft 28 kts 258°
2026-05-05 10:56 51.14829 -0.20222 204 ft 27 kts 258°
2026-05-05 10:57 51.14791 -0.20503 206 ft 25 kts 258°
2026-05-05 10:57 51.14754 -0.20765 212 ft 23 kts 257°
2026-05-05 10:57 51.14721 -0.21012 207 ft 22 kts 258°
2026-05-05 10:57 51.14696 -0.21198 208 ft 0 kts 258°
2026-05-05 10:58 51.14694 -0.21214 210 ft 6 kts 258°
2026-05-05 10:58 51.14654 -0.21311 203 ft 16 kts 206°
2026-05-05 10:58 51.14557 -0.21289 207 ft 16 kts 150°
2026-05-05 10:59 51.14514 -0.21193 204 ft 2 kts 82°
2026-05-05 10:59 51.14525 -0.21085 211 ft 31 kts 80°
2026-05-05 10:59 51.14624 -0.20361 211 ft 101 kts 77°
2026-05-05 10:59 51.14827 -0.18946 215 ft 158 kts 77°
2026-05-05 11:00 51.15061 -0.17176 903 ft 161 kts 75°
2026-05-05 11:00 51.15295 -0.15446 1829 ft 162 kts 73°
2026-05-05 11:00 51.15566 -0.13544 2290 ft 192 kts 74°
2026-05-05 11:00 51.15870 -0.11360 2703 ft 208 kts 75°
2026-05-05 11:01 51.16176 -0.09139 3452 ft 208 kts 76°
2026-05-05 11:01 51.16646 -0.06955 3839 ft 210 kts 54°
2026-05-05 11:01 51.17756 -0.05519 4130 ft 211 kts 25°
2026-05-05 11:01 51.19261 -0.05169 4076 ft 224 kts 356°
2026-05-05 11:02 51.20808 -0.05670 4312 ft 232 kts 341°
2026-05-05 11:02 51.22112 -0.07254 5062 ft 242 kts 308°
2026-05-05 11:02 51.22695 -0.09733 5995 ft 243 kts 272°
2026-05-05 11:02 51.22517 -0.12411 6837 ft 243 kts 261°
2026-05-05 11:03 51.22203 -0.15087 7580 ft 247 kts 260°
2026-05-05 11:03 51.21876 -0.17796 8347 ft 251 kts 260°
2026-05-05 11:03 51.21540 -0.20616 8676 ft 275 kts 259°
2026-05-05 11:03 51.21025 -0.23642 9231 ft 287 kts 252°
2026-05-05 11:04 51.20349 -0.26668 10028 ft 291 kts 250°
2026-05-05 11:04 51.19877 -0.28684 10499 ft 294 kts 250°
2026-05-05 11:04 51.19228 -0.31446 11183 ft 297 kts 250°
2026-05-05 11:04 51.18501 -0.34558 11899 ft 302 kts 250°
2026-05-05 11:05 51.17769 -0.37725 12646 ft 306 kts 250°
2026-05-05 11:05 51.17034 -0.40929 13399 ft 310 kts 250°
2026-05-05 11:05 51.16291 -0.44187 14036 ft 318 kts 250°
2026-05-05 11:05 51.15512 -0.47615 14204 ft 341 kts 250°
2026-05-05 11:06 51.14680 -0.51280 14377 ft 361 kts 250°
2026-05-05 11:06 51.13809 -0.55121 14770 ft 373 kts 250°
2026-05-05 11:06 51.12956 -0.59009 15382 ft 377 kts 253°
2026-05-05 11:06 51.12232 -0.63071 16151 ft 378 kts 255°
2026-05-05 11:07 51.11589 -0.67111 16720 ft 384 kts 256°
2026-05-05 11:07 51.10950 -0.71253 17428 ft 386 kts 256°
2026-05-05 11:07 51.10306 -0.75417 18112 ft 388 kts 255°
2026-05-05 11:07 51.09647 -0.79618 18669 ft 392 kts 255°
2026-05-05 11:08 51.08976 -0.83831 19245 ft 394 kts 255°
2026-05-05 11:08 51.08294 -0.88057 19829 ft 396 kts 255°
2026-05-05 11:08 51.07600 -0.92323 20397 ft 399 kts 255°
2026-05-05 11:08 51.06899 -0.96606 20986 ft 401 kts 254°
2026-05-05 11:09 51.06201 -1.00849 21540 ft 403 kts 254°
2026-05-05 11:09 51.05484 -1.05190 22091 ft 406 kts 254°
2026-05-05 11:09 51.04764 -1.09540 22636 ft 408 kts 254°
2026-05-05 11:09 51.04036 -1.13926 23152 ft 411 kts 253°
2026-05-05 11:10 51.03301 -1.18341 23653 ft 413 kts 253°
2026-05-05 11:10 51.02561 -1.22778 24077 ft 416 kts 253°
2026-05-05 11:10 51.01818 -1.27223 24514 ft 418 kts 253°
2026-05-05 11:10 51.01078 -1.31639 24932 ft 420 kts 253°
2026-05-05 11:11 51.00320 -1.36144 25321 ft 422 kts 253°
2026-05-05 11:11 50.99561 -1.40652 25723 ft 424 kts 253°
2026-05-05 11:11 50.98792 -1.45198 25994 ft 427 kts 253°
2026-05-05 11:11 50.98020 -1.49757 25985 ft 427 kts 253°
2026-05-05 11:12 50.97249 -1.54300 25990 ft 425 kts 252°
2026-05-05 11:12 50.96476 -1.58838 25991 ft 426 kts 252°
2026-05-05 11:12 50.95702 -1.63372 25998 ft 426 kts 252°
2026-05-05 11:12 50.94924 -1.67913 26021 ft 427 kts 252°
2026-05-05 11:13 50.94139 -1.72485 26249 ft 431 kts 252°
2026-05-05 11:13 50.93350 -1.77070 26736 ft 430 kts 252°
2026-05-05 11:13 50.92559 -1.81657 27242 ft 429 kts 252°
2026-05-05 11:13 50.91781 -1.86157 27633 ft 431 kts 252°
2026-05-05 11:14 50.90984 -1.90755 27966 ft 433 kts 252°
2026-05-05 11:14 50.90181 -1.95370 28345 ft 435 kts 252°
2026-05-05 11:14 50.89374 -2.00000 28721 ft 436 kts 251°
2026-05-05 11:14 50.88836 -2.03076 28973 ft 437 kts 251°
2026-05-05 11:15 50.87749 -2.09284 29432 ft 439 kts 251°
2026-05-05 11:15 50.87207 -2.12370 29664 ft 439 kts 251°
2026-05-05 11:15 50.86385 -2.17043 29977 ft 441 kts 251°
2026-05-05 11:15 50.85627 -2.21761 30283 ft 444 kts 257°
2026-05-05 11:16 50.85365 -2.28241 30732 ft 448 kts 269°
2026-05-05 11:16 50.85530 -2.31573 30964 ft 449 kts 274°
2026-05-05 11:16 50.86160 -2.36427 31277 ft 452 kts 281°
2026-05-05 11:16 50.86937 -2.41264 31596 ft 452 kts 282°
2026-05-05 11:17 50.87711 -2.46012 31916 ft 452 kts 282°
2026-05-05 11:17 50.89280 -2.55738 31995 ft 457 kts 282°
2026-05-05 11:18 50.90815 -2.65460 31981 ft 450 kts 281°
2026-05-05 11:18 50.92311 -2.75082 32001 ft 450 kts 281°
2026-05-05 11:19 50.93797 -2.84734 31993 ft 451 kts 281°
2026-05-05 11:19 50.95280 -2.94424 31999 ft 452 kts 281°
2026-05-05 11:20 50.96749 -3.04075 31997 ft 453 kts 281°
2026-05-05 11:20 50.98220 -3.13791 32006 ft 453 kts 281°
2026-05-05 11:21 50.99687 -3.23543 32005 ft 454 kts 281°
2026-05-05 11:21 51.01144 -3.33293 32012 ft 454 kts 281°
2026-05-05 11:22 51.02593 -3.43046 32006 ft 454 kts 281°
2026-05-05 11:22 51.04034 -3.52807 32011 ft 453 kts 281°
2026-05-05 11:23 51.05458 -3.62509 32008 ft 453 kts 281°
2026-05-05 11:23 51.06878 -3.72255 32016 ft 452 kts 281°
2026-05-05 11:24 51.08291 -3.82006 32016 ft 452 kts 281°
2026-05-05 11:24 51.09693 -3.91748 32019 ft 451 kts 281°
2026-05-05 11:25 51.11078 -4.01427 32023 ft 450 kts 281°
2026-05-05 11:25 51.12433 -4.10951 32017 ft 436 kts 281°
2026-05-05 11:26 51.13761 -4.20356 32031 ft 435 kts 281°
2026-05-05 11:26 51.15084 -4.29782 32026 ft 435 kts 281°
2026-05-05 11:27 51.16396 -4.39195 32030 ft 435 kts 281°
2026-05-05 11:27 51.17695 -4.48571 32031 ft 436 kts 281°
2026-05-05 11:28 51.18998 -4.58033 32037 ft 437 kts 282°
2026-05-05 11:28 51.20297 -4.67526 32039 ft 439 kts 282°
2026-05-05 11:29 51.21595 -4.77074 32042 ft 441 kts 282°
2026-05-05 11:29 51.22892 -4.86680 32039 ft 443 kts 282°
2026-05-05 11:30 51.24184 -4.96314 32044 ft 445 kts 283°
2026-05-05 11:30 51.25465 -5.05917 32047 ft 446 kts 283°
2026-05-05 11:31 51.26750 -5.15628 32047 ft 447 kts 283°
2026-05-05 11:31 51.28023 -5.25317 32033 ft 439 kts 283°
2026-05-05 11:32 51.29255 -5.34762 32040 ft 431 kts 283°
2026-05-05 11:32 51.30469 -5.44117 31925 ft 431 kts 283°
2026-05-05 11:32 51.31083 -5.48870 31321 ft 435 kts 283°
2026-05-05 11:33 51.31688 -5.53574 30917 ft 431 kts 283°
2026-05-05 11:33 51.32279 -5.58188 30508 ft 428 kts 283°
2026-05-05 11:33 51.32871 -5.62825 30088 ft 424 kts 283°
2026-05-05 11:33 51.33458 -5.67440 29589 ft 421 kts 283°
2026-05-05 11:34 51.34036 -5.71998 29160 ft 416 kts 283°
2026-05-05 11:34 51.34608 -5.76518 28719 ft 411 kts 283°
2026-05-05 11:34 51.35171 -5.80980 28301 ft 407 kts 283°
2026-05-05 11:34 51.35726 -5.85395 27868 ft 403 kts 283°
2026-05-05 11:35 51.36274 -5.89775 27450 ft 399 kts 283°
2026-05-05 11:35 51.36816 -5.94116 27029 ft 396 kts 283°
2026-05-05 11:35 51.37353 -5.98430 26615 ft 393 kts 282°
2026-05-05 11:35 51.37883 -6.02689 26202 ft 389 kts 282°
2026-05-05 11:36 51.38409 -6.06939 25804 ft 386 kts 282°
2026-05-05 11:36 51.38922 -6.11094 25406 ft 384 kts 282°
2026-05-05 11:36 51.39436 -6.15281 25001 ft 381 kts 281°
2026-05-05 11:36 51.39946 -6.19437 24603 ft 378 kts 281°
2026-05-05 11:37 51.40450 -6.23564 24209 ft 376 kts 281°
2026-05-05 11:37 51.40950 -6.27667 23810 ft 374 kts 281°
2026-05-05 11:37 51.41439 -6.31699 23367 ft 372 kts 281°
2026-05-05 11:37 51.41930 -6.35754 22930 ft 369 kts 281°
2026-05-05 11:38 51.42416 -6.39789 22507 ft 366 kts 281°
2026-05-05 11:38 51.42896 -6.43778 22119 ft 363 kts 281°
2026-05-05 11:38 51.43370 -6.47727 21726 ft 360 kts 281°
2026-05-05 11:38 51.43839 -6.51651 21337 ft 357 kts 281°
2026-05-05 11:39 51.44303 -6.55542 20958 ft 354 kts 281°
2026-05-05 11:39 51.44761 -6.59400 20582 ft 351 kts 281°
2026-05-05 11:39 51.45215 -6.63231 20208 ft 349 kts 281°
2026-05-05 11:39 51.45665 -6.67040 19837 ft 346 kts 281°
2026-05-05 11:40 51.46112 -6.70828 19467 ft 344 kts 281°
2026-05-05 11:40 51.46554 -6.74594 19100 ft 342 kts 281°
2026-05-05 11:40 51.46987 -6.78290 18735 ft 341 kts 281°
2026-05-05 11:40 51.47424 -6.82031 18368 ft 339 kts 281°
2026-05-05 11:41 51.47856 -6.85744 17959 ft 337 kts 281°
2026-05-05 11:41 51.48285 -6.89432 17560 ft 335 kts 281°
2026-05-05 11:41 51.48708 -6.93093 17188 ft 333 kts 281°
2026-05-05 11:41 51.49128 -6.96730 16821 ft 330 kts 281°
2026-05-05 11:42 51.49544 -7.00344 16464 ft 328 kts 281°
2026-05-05 11:42 51.49955 -7.03926 16107 ft 325 kts 281°
2026-05-05 11:42 51.50364 -7.07492 15743 ft 323 kts 281°
2026-05-05 11:42 51.50767 -7.11022 15406 ft 321 kts 281°
2026-05-05 11:43 51.51168 -7.14545 15054 ft 319 kts 281°
2026-05-05 11:43 51.51559 -7.17992 14715 ft 317 kts 281°
2026-05-05 11:43 51.51953 -7.21476 14369 ft 316 kts 281°
2026-05-05 11:43 51.52344 -7.24939 14023 ft 314 kts 281°
2026-05-05 11:44 51.52733 -7.28388 13650 ft 313 kts 281°
2026-05-05 11:44 51.53118 -7.31821 13276 ft 312 kts 281°
2026-05-05 11:44 51.53502 -7.35247 12919 ft 309 kts 281°
2026-05-05 11:44 51.53880 -7.38638 12574 ft 307 kts 281°
2026-05-05 11:45 51.54255 -7.42004 12232 ft 305 kts 281°
2026-05-05 11:45 51.54625 -7.45340 11959 ft 302 kts 281°
2026-05-05 11:45 51.54994 -7.48665 11591 ft 302 kts 281°
2026-05-05 11:45 51.55355 -7.51934 11250 ft 300 kts 281°
2026-05-05 11:46 51.55717 -7.55232 10912 ft 299 kts 281°
2026-05-05 11:46 51.56079 -7.58523 10572 ft 298 kts 281°
2026-05-05 11:46 51.56436 -7.61787 10335 ft 293 kts 281°
2026-05-05 11:46 51.56784 -7.64975 10191 ft 285 kts 281°
2026-05-05 11:47 51.57122 -7.68073 10029 ft 279 kts 281°
2026-05-05 11:47 51.57452 -7.71112 9700 ft 278 kts 281°
2026-05-05 11:47 51.57785 -7.74180 9351 ft 278 kts 281°
2026-05-05 11:47 51.58117 -7.77240 9029 ft 277 kts 281°
2026-05-05 11:48 51.58773 -7.83336 8419 ft 275 kts 281°
2026-05-05 11:48 51.59098 -7.86359 8121 ft 273 kts 281°
2026-05-05 11:48 51.59415 -7.89322 7837 ft 272 kts 281°
2026-05-05 11:49 51.59734 -7.92312 7549 ft 270 kts 281°
2026-05-05 11:49 51.60051 -7.95290 7259 ft 269 kts 281°
2026-05-05 11:49 51.60365 -7.98243 6973 ft 268 kts 281°
2026-05-05 11:49 51.60678 -8.01193 6691 ft 266 kts 281°
2026-05-05 11:50 51.60841 -8.02733 6545 ft 266 kts 281°
2026-05-05 11:50 51.61150 -8.05664 6237 ft 264 kts 281°
2026-05-05 11:50 51.61457 -8.08574 5950 ft 263 kts 281°
2026-05-05 11:50 51.61761 -8.11470 5656 ft 262 kts 281°
2026-05-05 11:51 51.62063 -8.14352 5372 ft 260 kts 281°
2026-05-05 11:51 51.62359 -8.17186 5102 ft 259 kts 281°
2026-05-05 11:51 51.62658 -8.20049 4835 ft 258 kts 281°
2026-05-05 11:51 51.62949 -8.22845 4732 ft 249 kts 281°
2026-05-05 11:52 51.63231 -8.25559 4607 ft 242 kts 281°
2026-05-05 11:52 51.63504 -8.28194 4503 ft 234 kts 281°
2026-05-05 11:52 51.63766 -8.30735 4407 ft 226 kts 281°
2026-05-05 11:52 51.64018 -8.33190 4315 ft 218 kts 282°
2026-05-05 11:53 51.64277 -8.35575 4147 ft 217 kts 287°
2026-05-05 11:53 51.65017 -8.37569 3972 ft 208 kts 324°
2026-05-05 11:53 51.66263 -8.38598 3792 ft 198 kts 339°
2026-05-05 11:53 51.67532 -8.39360 3567 ft 191 kts 341°
2026-05-05 11:54 51.68760 -8.40074 3333 ft 185 kts 341°
2026-05-05 11:54 51.69954 -8.40770 3115 ft 179 kts 341°
2026-05-05 11:54 51.71112 -8.41444 2880 ft 175 kts 341°
2026-05-05 11:54 51.72244 -8.42106 2656 ft 171 kts 341°
2026-05-05 11:55 51.73362 -8.42762 2461 ft 171 kts 341°
2026-05-05 11:55 51.74473 -8.43415 2235 ft 172 kts 341°
2026-05-05 11:55 51.75593 -8.44073 2021 ft 171 kts 341°
2026-05-05 11:55 51.76707 -8.44728 1792 ft 169 kts 341°
2026-05-05 11:56 51.77805 -8.45374 1561 ft 166 kts 341°
2026-05-05 11:56 51.78862 -8.45998 1373 ft 158 kts 342°
2026-05-05 11:56 51.79873 -8.46597 1196 ft 152 kts 341°
2026-05-05 11:56 51.80871 -8.47186 961 ft 153 kts 341°
2026-05-05 11:57 51.81823 -8.47745 780 ft 144 kts 340°
2026-05-05 11:57 51.82777 -8.48307 638 ft 146 kts 340°
2026-05-05 11:57 51.83688 -8.48853 501 ft 142 kts 339°
2026-05-05 11:57 51.84495 -8.49327 502 ft 107 kts 339°
2026-05-05 11:58 51.84997 -8.49576 505 ft 32 kts 12°
2026-05-05 11:58 51.85155 -8.49431 504 ft 19 kts 56°
2026-05-05 11:58 51.85196 -8.49244 504 ft 12 kts 70°
2026-05-05 11:58 51.85201 -8.49221 504 ft 0 kts 70°